Location: Makanda
(37.6176°N, 89.2090°W)
Time: 19:07:36
(UTC+00:00)

ATLAS 3B R/B - Pass Details

Date: 23 September 2019
Orbit: 1028 x 1166 km, 63.8° (Epoch: 07 October)

Event Time Altitude Azimuth Distance (km) Brightness Sun altitude
Exits shadow 07:59:05 30° 31° (NNE) 1,761 4.1 -42.0°
Drops below altitude 10° 08:02:11 10° 32° (NNE) 2,832 5.5 -41.5°
Sets 08:04:46 0° 33° (NNE) 3,784 6.4 -41.1°
